Kuchera_Ratio
0.0 0.0 0.0 0.0 0.0 0.0 0.0 0.0 0.0 0.0 0.0 0.0 0.0 0.0 0.0 0.0 0.0 0.0 0.0 0.0 0.0 0.0 0.0 0.0 0.0 0.0 0.0
2.6 1.9 0.9 0.0 0.0 0.0 0.0 0.0 0.0 0.0 0.0 0.0 0.0 0.0 0.0 0.0 0.0 0.0 0.0 0.0 0.0 0.0 0.0 0.0 0.0 0.0 0.0
7.1 1.2 0.0 0.0 0.0 0.0 0.0 0.0 0.0 0.0 0.0 0.0 0.0 0.0 0.0 0.0 0.0 0.0 0.0 0.0 0.0 0.0 0.0 0.0 0.0 0.0 0.0
5.3 4.8 2.8 0.3 0.3 3.8 4.7 2.1 3.6 0.0 0.0 0.0 0.0 0.0 0.0 0.0 0.0 0.0 0.0 0.0 0.0 0.0 0.0 0.0 0.0 0.0 0.0
7.9 6.7 6.1 5.9 7.1 5.0 7.7 6.9 5.0 2.8 4.3 3.4 2.2 1.5 0.3 0.0 0.0 0.0 0.0 0.0 0.0 0.0 0.0 0.0 0.0 0.0 0.0
8.2 8.6 7.9 6.3 5.7 8.0 9.9 11.9 12.9 4.1 8.5 9.4 4.9 6.2 2.5 0.0 0.0 0.0 0.0 0.0 0.0 0.0 0.0 0.0 0.0 0.0 0.0
7.6 7.1 8.2 6.3 6.9 9.2 10.1 11.7 12.6 8.4 9.4 12.3 6.5 7.7 2.3 0.0 0.0 0.0 0.0 0.0 0.0 0.0 0.0 0.0 0.0 0.0 0.0
2.8 4.3 4.0 3.1 5.0 6.7 8.5 9.9 8.9 7.3 7.3 13.9 8.6 10.1 5.6 3.1 0.0 0.0 0.0 0.0 0.0 0.0 0.0 0.0 0.0 0.0 0.0
0.0 0.0 0.0 0.6 2.0 6.3 11.7 12.8 14.0 12.8 9.5 12.4 11.8 11.0 9.1 8.1 4.1 0.0 0.0 0.0 0.0 0.0 0.0 0.0 0.0 0.0 0.0
5.7 4.9 4.2 4.9 2.4 6.6 9.4 13.8 14.1 14.7 10.5 13.2 13.0 12.5 13.9 7.7 5.3 2.4 2.7 0.0 0.0 0.0 0.0 0.0 0.0 0.0 1.2
8.9 9.2 8.4 8.0 8.3 7.4 7.2 11.0 13.8 14.0 9.0 10.0 13.0 12.7 13.0 12.7 8.4 4.3 2.3 1.4 1.2 2.2 0.0 0.0 0.0 0.0 3.8
11.9 12.0 11.9 11.7 10.7 9.3 7.8 7.6 7.3 10.2 8.7 9.6 13.2 13.3 13.3 13.1 12.5 5.9 3.9 1.9 3.2 6.7 5.9 3.4 1.4 0.3 0.0
13.1 12.9 12.1 11.2 9.4 8.9 8.0 7.9 7.8 7.7 6.5 8.6 10.9 11.3 11.3 12.5 12.4 9.8 7.7 6.4 4.7 7.0 7.4 6.6 6.6 4.3 5.3
13.1 12.5 11.7 11.7 11.7 10.6 12.2 12.0 12.7 12.3 7.6 6.9 8.0 8.5 11.6 10.1 9.5 10.3 7.9 11.5 6.5 6.8 6.9 6.5 5.1 2.9 2.6
13.4 13.7 13.0 12.5 12.7 11.8 12.2 12.4 13.8 13.3 12.6 9.9 7.4 6.2 6.3 8.9 11.2 9.9 9.5 9.3 6.6 7.8 8.1 8.3 5.7 3.4 0.0
13.9 13.9 13.9 14.1 13.9 12.7 12.4 12.9 13.8 13.3 12.8 11.4 10.3 10.4 8.1 5.9 1.6 9.5 9.5 9.3 7.8 8.1 7.8 9.7 6.7 1.5 0.0
13.9 14.0 14.4 14.1 13.8 13.9 13.1 13.1 13.5 12.9 12.2 11.0 11.7 12.3 13.5 14.3 7.8 0.7 10.8 9.7 8.7 8.6 8.1 8.1 4.8 1.2 0.0